TimeEDT,TemperatureF,Dew PointF,Humidity,Sea Level PressureIn,VisibilityMPH,Wind Direction,Wind SpeedMPH,Gust SpeedMPH,PrecipitationIn,Events,Conditions,WindDirDegrees,DateUTC
12:53 AM,39.9,32.0,73,30.04,10.0,West,5.8,-,N/A,,Clear,270,2012-10-07 04:53:00
1:53 AM,41.0,33.1,73,30.05,10.0,West,4.6,-,N/A,,Clear,270,2012-10-07 05:53:00
2:53 AM,39.9,34.0,79,30.05,10.0,WSW,5.8,-,N/A,,Clear,240,2012-10-07 06:53:00
3:53 AM,39.9,35.1,83,30.05,10.0,West,5.8,-,N/A,,Clear,260,2012-10-07 07:53:00
4:53 AM,41.0,36.0,82,30.05,10.0,WNW,4.6,-,N/A,,Mostly Cloudy,300,2012-10-07 08:53:00
5:53 AM,41.0,35.1,79,30.03,10.0,Calm,Calm,-,N/A,,Overcast,0,2012-10-07 09:53:00
6:53 AM,39.9,36.0,86,30.03,10.0,ESE,3.5,-,N/A,,Mostly Cloudy,120,2012-10-07 10:53:00
7:53 AM,39.9,36.0,86,30.06,10.0,South,3.5,-,N/A,,Overcast,190,2012-10-07 11:53:00
8:53 AM,42.1,37.0,82,30.09,10.0,SW,4.6,-,N/A,,Overcast,220,2012-10-07 12:53:00
9:53 AM,43.0,37.9,82,30.10,10.0,SW,4.6,-,N/A,,Overcast,230,2012-10-07 13:53:00
10:53 AM,45.0,37.9,76,30.10,10.0,West,4.6,-,N/A,,Overcast,260,2012-10-07 14:53:00
11:53 AM,46.0,37.0,71,30.09,10.0,SW,3.5,-,N/A,,Overcast,230,2012-10-07 15:53:00
12:53 PM,46.9,35.1,63,30.07,10.0,Variable,3.5,-,0.01,,Overcast,0,2012-10-07 16:53:00
1:53 PM,48.9,37.0,64,30.04,10.0,WSW,6.9,-,N/A,,Overcast,240,2012-10-07 17:53:00
2:53 PM,48.0,36.0,63,30.03,10.0,South,5.8,-,N/A,,Overcast,190,2012-10-07 18:53:00
3:53 PM,48.0,37.0,66,30.01,10.0,SSW,3.5,-,N/A,,Overcast,200,2012-10-07 19:53:00
4:53 PM,46.9,37.0,68,30.01,10.0,SSW,5.8,-,N/A,,Overcast,200,2012-10-07 20:53:00
5:53 PM,45.0,35.1,68,30.03,5.0,WSW,4.6,-,0.01,Rain,Light Rain,250,2012-10-07 21:53:00
6:10 PM,42.8,37.4,81,30.01,5.0,SW,9.2,19.6,0.02,Rain,Light Rain,220,2012-10-07 22:10:00
6:20 PM,42.8,35.6,76,30.00,10.0,South,8.1,-,0.02,Rain,Light Rain,170,2012-10-07 22:20:00
6:53 PM,43.0,36.0,76,30.05,10.0,SW,5.8,-,0.03,Rain,Light Rain,220,2012-10-07 22:53:00
7:02 PM,42.8,37.4,81,30.02,10.0,WSW,6.9,-,0.00,Rain,Light Rain,240,2012-10-07 23:02:00
7:53 PM,41.0,39.0,93,30.07,10.0,West,4.6,-,0.01,Rain,Light Rain,260,2012-10-07 23:53:00
8:53 PM,41.0,39.0,93,30.09,10.0,West,10.4,-,0.01,Rain,Light Rain,260,2012-10-08 00:53:00
9:30 PM,41.0,37.4,87,30.06,10.0,WSW,6.9,-,0.00,,Overcast,250,2012-10-08 01:30:00
9:53 PM,39.9,37.9,93,30.09,10.0,WSW,6.9,-,0.00,Rain,Light Rain,250,2012-10-08 01:53:00
10:23 PM,39.2,37.4,93,30.06,10.0,WSW,8.1,-,0.00,,Overcast,250,2012-10-08 02:23:00
10:53 PM,41.0,37.9,89,30.09,10.0,West,6.9,-,0.00,,Overcast,270,2012-10-08 02:53:00
11:13 PM,41.0,37.4,87,30.06,10.0,West,8.1,-,N/A,,Overcast,260,2012-10-08 03:13:00
11:33 PM,39.2,37.4,93,30.07,10.0,NW,8.1,-,N/A,,Overcast,310,2012-10-08 03:33:00
11:53 PM,39.9,37.0,89,30.11,10.0,WNW,6.9,-,N/A,,Overcast,290,2012-10-08 03:53:00